RH
38 38 38 37 38 37 37 37 36 36 35 35 34 33 33 32 31 30 28 26 24 23 22 20 18 15 12 11 10 8 8 8 7 8 12 10 9 11 10 10 9 9 8 12 26 38 46 49 51 55 52 49 48 42 41 42 40 44 39 38 51 63 66 40 19 22 20 19 20 21 24 22 23 25 26 27 28 29 32 33 34 38 40 42 46 52 57 61
34 34 34 33 34 34 34 35 34 35 35 35 35 34 34 33 33 32 31 29 27 25 24 22 20 17 16 13 11 10 8 7 7 9 11 9 10 10 9 9 9 9 8 20 38 42 42 44 51 53 47 44 42 38 37 38 39 39 36 34 39 54 55 30 20 22 18 20 20 20 22 23 23 24 27 26 26 27 30 32 33 40 44 46 49 52 59 63
22 22 22 22 23 23 24 25 27 29 30 32 33 34 34 34 34 33 33 31 30 28 25 24 22 19 17 14 13 11 8 10 15 14 9 9 9 8 9 8 9 8 9 28 43 38 36 42 49 49 43 40 35 34 33 35 37 33 33 32 34 49 45 24 23 22 20 21 18 21 22 23 23 23 27 25 25 26 27 29 33 40 44 48 50 53 60 65
10 10 10 10 11 11 12 13 15 17 19 22 24 28 31 32 33 33 33 32 31 30 28 26 23 21 17 15 14 10 12 17 19 16 11 11 10 9 10 8 10 8 10 33 42 35 35 40 46 45 39 34 31 30 31 33 34 30 30 29 39 54 39 20 24 23 21 22 20 21 21 22 23 24 26 25 27 27 26 28 31 39 45 50 51 54 60 64
8 8 8 8 8 7 8 7 7 8 9 10 12 16 20 25 28 30 32 32 32 30 30 28 24 22 17 16 15 10 16 17 16 19 15 13 11 10 10 8 10 6 13 35 39 32 34 38 42 41 35 29 27 28 28 30 31 28 28 25 30 42 36 24 24 25 23 23 22 20 20 22 23 24 25 25 26 24 25 28 30 37 45 50 51 55 59 61
8 8 8 8 8 8 8 7 7 6 6 5 5 7 9 14 19 24 28 30 31 31 30 29 26 21 16 17 14 12 18 14 18 24 16 12 11 9 10 10 10 10 21 34 33 31 32 34 38 36 31 26 23 26 26 28 30 27 26 25 23 30 40 34 26 26 26 24 22 20 21 22 22 23 24 25 24 22 23 27 30 36 44 49 51 55 58 59
6 6 6 6 6 6 7 7 7 7 6 6 4 4 4 5 10 16 23 27 30 30 30 29 26 19 16 16 14 17 22 14 15 21 13 11 13 10 11 11 9 17 30 32 27 28 29 30 35 32 28 25 22 22 23 25 27 26 24 24 23 26 33 32 28 28 26 24 23 22 21 20 21 22 23 24 23 23 25 26 30 37 43 47 51 54 56 58
4 4 4 4 4 4 5 4 5 6 6 6 5 4 3 3 5 9 18 24 28 30 29 29 23 17 14 15 20 26 22 13 10 14 12 11 14 13 12 10 11 27 36 29 24 24 26 28 32 30 24 23 20 20 23 22 23 25 23 21 22 25 25 26 27 27 26 24 23 22 20 18 20 20 21 22 23 24 26 27 30 38 44 46 50 52 54 57
4 4 4 4 4 4 4 3 3 3 4 6 6 5 4 4 3 5 15 23 28 29 28 26 19 15 14 14 25 27 16 12 10 11 12 10 14 13 11 9 13 36 41 27 23 20 22 27 28 26 21 20 19 18 21 21 22 23 22 21 19 21 22 23 25 25 25 23 22 22 20 18 18 19 19 21 23 25 27 28 31 38 42 44 48 50 53 56
4 4 4 4 4 4 4 3 3 3 3 4 5 6 5 3 3 6 15 23 27 26 24 21 17 17 15 15 24 23 12 11 11 14 14 10 16 11 11 15 14 35 42 26 23 19 19 24 23 23 19 19 19 16 19 20 21 22 22 21 18 19 20 22 23 23 23 22 22 21 19 18 17 18 18 19 22 23 26 28 33 38 40 43 46 48 53 55
4 4 4 4 4 4 4 3 3 3 2 3 4 5 4 4 7 11 17 23 24 22 21 18 20 21 19 21 26 19 10 12 15 21 19 15 23 13 10 23 22 32 40 28 23 18 17 20 19 21 18 18 19 16 18 20 21 22 23 22 19 19 19 20 21 22 22 21 21 20 19 18 16 18 17 17 20 22 26 30 35 37 37 41 43 47 52 53
5 5 5 4 4 4 4 3 3 3 2 3 3 4 5 6 11 16 19 21 21 21 21 21 26 26 27 32 27 18 14 15 17 24 25 22 29 21 14 28 30 31 35 27 23 19 17 18 17 18 16 17 18 17 18 20 23 22 21 23 22 20 18 18 19 21 21 20 19 19 19 19 17 17 16 17 20 22 26 31 35 36 37 41 42 46 52 53
6 6 5 5 5 4 4 4 3 3 3 2 3 4 5 9 15 19 19 20 21 21 21 24 27 28 35 38 24 15 16 16 17 23 27 27 30 28 22 29 32 31 31 25 22 20 18 18 16 17 17 16 16 17 19 19 22 21 19 22 22 20 18 16 16 18 19 18 16 17 21 20 15 15 16 18 21 23 26 29 32 34 36 39 41 46 51 53
7 6 6 5 5 5 4 4 3 3 3 3 3 3 6 10 14 17 20 20 21 22 23 24 27 35 45 37 19 15 15 14 15 17 24 29 29 27 24 28 32 31 29 25 21 20 19 18 16 15 17 18 16 15 18 17 18 19 19 21 20 20 17 13 14 15 16 16 15 16 21 19 13 14 16 18 21 22 23 27 29 31 34 37 40 46 50 52
7 7 6 6 5 5 4 4 4 3 3 3 3 5 7 8 9 14 19 20 23 25 25 26 28 44 51 33 19 18 14 14 14 13 22 32 31 28 29 31 32 30 28 25 22 21 21 19 17 16 17 19 17 15 16 16 15 17 21 21 18 17 16 12 11 13 14 15 13 15 19 18 13 14 16 18 20 20 21 24 27 30 33 36 41 46 49 51
8 7 6 6 5 5 5 4 4 3 4 3 3 5 5 7 11 15 18 21 28 30 31 36 37 45 44 27 21 20 14 14 12 12 20 30 32 30 31 31 28 27 26 25 24 23 22 19 18 18 19 19 17 16 18 18 15 15 19 20 16 15 15 13 11 12 12 12 13 14 18 18 14 14 16 17 19 20 20 22 26 29 32 36 43 47 49 50
8 7 7 6 5 5 5 4 4 4 4 3 3 6 11 18 18 20 28 29 33 35 39 50 49 45 36 21 20 19 15 15 11 10 15 23 27 26 28 28 26 26 26 27 27 24 21 20 20 19 19 18 15 15 20 21 16 14 15 15 14 14 14 14 13 11 11 12 13 14 16 16 14 14 16 17 18 19 19 21 25 27 31 39 44 46 49 51
8 8 7 6 6 5 5 4 4 4 4 4 4 12 28 33 25 32 53 55 55 57 56 58 51 37 28 21 19 15 14 16 13 9 11 18 20 21 27 27 25 27 26 25 25 24 22 20 20 19 18 17 16 16 19 18 14 12 13 13 13 13 13 13 13 11 11 12 13 14 16 16 14 13 15 17 18 18 19 20 23 26 32 42 45 45 48 51
9 8 7 7 6 5 5 4 4 5 5 5 5 17 35 40 38 53 72 70 68 67 56 51 41 26 20 20 18 14 13 15 13 9 9 15 16 18 27 27 24 25 22 18 20 22 22 20 20 21 19 17 18 17 16 12 9 9 10 12 13 13 12 12 11 11 11 12 13 14 15 15 14 13 14 16 17 17 18 19 22 25 30 41 45 44 46 49
9 8 7 7 6 6 6 4 5 5 7 15 18 22 32 34 34 44 53 49 46 44 34 32 30 23 21 20 16 14 15 16 14 12 8 12 14 15 22 25 22 20 17 14 15 17 18 19 20 21 19 16 17 17 14 10 7 8 8 10 11 12 12 11 11 10 9 12 13 13 13 13 14 13 13 14 15 16 17 18 21 23 28 38 43 41 43 48
10 10 8 7 6 6 5 5 7 4 11 29 33 27 32 34 27 31 40 34 28 27 24 20 20 21 21 20 18 15 16 15 15 14 9 10 13 13 18 21 20 18 15 12 12 14 17 18 17 17 16 14 15 15 14 11 8 8 8 9 10 10 11 10 11 11 10 12 13 12 12 12 12 12 12 12 15 15 15 17 19 22 26 35 41 40 41 46
13 11 9 8 7 6 6 7 10 8 13 31 35 27 32 40 39 44 48 38 28 25 23 21 18 17 16 17 19 19 18 15 14 15 11 10 10 12 16 17 17 17 14 11 13 15 18 19 15 13 13 14 15 14 14 13 10 9 8 9 9 8 9 10 10 10 10 12 13 12 12 12 11 11 10 11 14 16 16 15 17 21 23 29 37 39 40 45
14 12 11 10 8 8 6 9 16 17 24 35 34 27 30 37 42 50 50 41 33 26 22 22 19 15 14 14 15 19 20 15 13 15 13 10 9 9 13 15 15 16 14 12 13 15 18 17 14 11 12 14 15 13 12 12 11 10 9 9 9 7 9 10 9 10 10 11 13 13 12 12 11 11 10 10 12 13 14 15 15 18 19 22 31 36 40 44
14 12 13 10 9 9 7 18 25 21 30 41 36 28 30 35 41 49 49 39 31 24 18 18 17 15 13 12 13 16 19 17 13 13 14 12 9 8 11 13 14 14 13 12 11 13 14 13 11 11 11 14 14 11 11 12 11 10 9 8 8 7 8 9 8 9 10 10 12 12 14 14 12 12 11 10 11 10 11 14 15 15 17 19 27 34 37 39
14 13 13 10 12 7 9 29 29 17 28 37 32 28 30 35 43 53 52 39 29 23 18 15 14 15 13 11 12 12 15 18 16 13 14 14 9 7 9 11 13 13 13 12 11 12 11 10 10 10 10 12 12 11 11 11 10 10 9 7 7 7 7 7 8 9 10 11 11 12 18 19 13 12 12 10 11 11 10 14 15 15 15 18 24 31 34 35
15 14 11 10 12 6 11 25 21 21 31 28 26 29 31 36 43 53 55 41 25 16 15 15 13 14 14 12 12 12 14 16 16 14 15 15 11 7 8 10 11 12 12 11 11 11 10 9 9 10 10 10 11 10 9 9 10 10 8 6 7 6 6 6 7 9 11 12 10 11 18 20 15 13 12 11 11 12 11 13 15 15 15 17 22 26 32 34
16 14 9 10 11 9 13 14 16 32 34 26 27 30 32 37 41 51 55 38 19 12 14 15 13 13 14 13 13 14 13 13 15 15 14 16 13 8 9 10 11 12 10 10 12 11 9 9 9 10 10 9 10 10 8 8 10 9 6 5 6 5 5 6 6 8 9 10 9 9 13 17 17 14 12 11 12 13 12 12 14 15 15 18 21 25 29 32
16 12 10 10 8 15 19 15 31 47 37 29 31 29 34 39 42 51 54 37 15 9 14 14 14 15 14 15 14 12 11 12 14 15 14 15 14 10 9 9 10 11 9 10 13 11 9 10 10 10 11 10 9 9 8 9 10 8 5 4 5 5 5 4 5 7 7 8 12 10 10 14 15 13 12 11 12 13 13 13 15 16 16 18 21 24 28 32
15 12 12 8 7 23 30 28 47 52 35 31 29 29 35 38 43 47 45 36 16 7 13 14 14 15 13 15 15 11 11 11 12 13 14 15 14 11 10 8 8 10 9 9 11 10 9 10 9 9 11 10 9 8 8 9 9 7 5 5 5 5 5 5 5 6 7 10 14 12 9 12 14 13 13 13 13 13 13 14 17 16 17 20 22 24 27 31
16 13 11 8 11 26 34 36 43 36 28 31 29 30 34 35 43 45 36 27 12 7 12 12 13 13 13 14 14 13 11 10 11 13 13 14 14 13 11 9 8 8 9 9 9 9 8 9 9 8 10 10 8 8 8 8 7 6 6 6 7 8 8 7 6 6 9 13 13 10 8 11 14 14 13 13 12 12 13 15 17 17 18 21 24 25 25 30
17 14 12 11 11 21 33 36 34 29 30 34 32 32 32 30 36 41 33 17 8 12 14 12 13 12 12 13 13 13 12 11 11 12 14 13 14 14 12 12 10 9 11 10 9 9 8 9 9 8 8 9 9 8 8 7 6 6 6 7 10 11 10 10 10 9 12 14 11 8 7 8 13 14 11 11 10 10 12 14 15 17 18 20 24 25 24 29
17 15 12 11 13 28 43 39 33 36 37 35 36 32 28 29 32 33 25 9 10 22 20 16 17 15 15 15 13 13 13 13 11 11 14 13 14 15 13 13 12 13 15 12 10 10 9 9 8 8 9 9 10 9 8 8 7 7 7 8 12 14 14 14 13 12 13 12 9 6 7 8 11 11 9 9 9 9 10 11 13 15 15 17 22 24 22 25
18 15 14 20 30 44 50 39 34 38 37 37 38 28 23 32 35 27 16 10 17 26 23 21 20 18 18 17 15 14 12 13 12 11 12 13 14 15 13 12 11 13 15 13 11 11 10 9 8 9 10 10 10 10 9 10 8 8 8 10 13 14 17 17 15 13 13 10 7 5 7 9 9 8 7 8 8 8 8 9 11 13 11 13 21 23 20 21
18 18 27 40 47 46 41 36 35 35 37 40 35 23 23 31 29 18 13 17 24 25 23 22 21 19 18 16 15 13 11 13 11 11 12 13 15 15 14 12 10 11 12 11 12 11 12 12 9 9 10 10 11 9 9 9 9 9 8 9 12 13 15 16 14 13 13 11 8 7 8 10 9 8 6 6 7 7 7 8 10 11 9 12 20 22 19 18
20 33 45 48 44 35 32 34 35 35 38 38 30 22 22 24 19 15 18 25 27 26 24 22 20 19 16 14 13 11 11 12 11 11 12 13 15 16 14 12 11 10 11 12 12 10 11 12 9 8 8 9 11 9 7 8 9 9 8 8 12 11 11 13 12 10 11 10 9 8 9 8 8 7 6 6 6 6 7 7 9 10 9 12 20 22 17 17
29 50 51 40 33 27 29 33 34 36 38 32 27 24 18 14 12 14 22 26 26 26 26 22 18 18 16 13 12 12 11 12 11 12 12 12 14 14 13 13 11 10 10 11 12 11 12 11 8 7 8 7 9 9 6 7 9 10 9 10 10 8 8 12 13 11 11 13 11 9 9 8 7 7 7 7 7 6 7 7 7 9 10 10 17 22 18 15
40 60 50 37 31 25 28 33 33 37 37 33 32 25 15 10 10 14 21 24 24 24 27 26 20 18 19 15 11 11 11 13 12 11 12 13 13 13 13 11 10 10 10 9 10 10 11 11 8 7 8 8 7 8 7 6 7 9 10 9 7 7 8 10 14 15 15 16 12 9 9 9 10 10 7 8 8 7 7 7 7 9 10 9 12 18 18 14
52 59 45 36 32 26 29 34 35 36 36 39 41 30 18 13 14 18 20 21 22 22 24 26 21 18 21 21 17 14 14 15 13 11 12 12 13 15 14 13 13 12 10 9 11 11 10 12 10 6 7 8 6 8 9 6 6 8 8 7 7 10 11 11 14 16 16 16 13 10 9 9 10 10 8 8 8 7 7 7 7 7 9 8 9 12 15 14
56 46 34 33 32 29 33 37 36 34 32 35 38 32 22 18 18 20 21 21 21 22 23 23 21 18 19 21 21 19 19 19 17 15 13 11 15 18 16 17 18 16 14 14 14 12 10 12 12 8 6 8 8 9 10 8 6 7 7 6 7 9 10 11 13 13 14 15 14 11 10 8 8 8 7 8 8 7 7 8 8 7 6 8 8 8 11 14
53 35 28 32 33 32 36 36 31 27 26 28 30 27 21 18 20 20 21 24 25 26 25 22 23 23 21 22 24 22 21 20 20 20 16 12 16 20 18 19 20 19 18 17 16 13 12 14 14 10 7 8 10 10 9 8 7 7 9 8 8 7 8 9 10 9 11 13 14 12 11 8 6 5 5 7 8 7 7 8 8 7 6 7 8 8 12 15
48 30 27 33 35 35 34 29 23 21 23 27 26 23 21 21 22 20 21 26 29 29 28 27 27 25 22 23 25 24 23 22 20 21 18 16 20 22 20 20 21 20 20 19 17 14 14 15 15 12 10 10 10 9 7 6 6 7 8 8 8 8 8 11 12 10 8 10 11 11 11 9 6 5 6 6 7 7 7 7 7 7 6 7 8 9 11 15
39 28 29 35 36 35 31 23 20 21 23 26 25 22 24 25 23 22 23 28 31 30 30 33 32 29 27 26 25 25 24 22 21 21 19 18 21 22 20 21 22 20 20 19 15 13 16 18 18 15 11 11 9 7 7 6 5 6 7 7 7 7 8 11 13 12 10 9 8 8 11 9 7 7 6 6 6 6 6 6 7 6 6 6 7 9 10 13
36 33 30 33 35 33 29 22 22 24 22 24 24 22 24 25 23 25 25 28 33 34 34 35 34 39 43 39 35 31 25 23 22 21 20 20 22 21 19 21 22 19 20 19 15 14 18 20 22 19 12 9 8 7 7 6 5 6 7 6 7 7 7 9 10 11 11 10 8 9 12 10 8 7 6 6 6 5 5 6 6 6 6 6 6 8 9 11
38 35 27 29 35 33 28 25 27 28 24 26 25 23 24 24 25 28 27 28 34 37 37 37 39 47 48 41 38 35 30 30 27 21 21 23 23 22 20 21 22 19 20 23 22 20 20 21 22 23 18 14 12 10 9 9 7 7 7 7 7 7 7 8 9 11 13 13 10 10 11 10 10 10 8 7 6 5 5 5 5 6 6 6 6 8 12 15
34 29 25 29 35 34 29 28 29 28 28 32 29 26 27 25 25 29 29 30 35 39 41 43 46 48 43 39 42 39 33 31 29 25 25 26 23 21 20 21 22 19 21 30 31 25 23 22 22 25 23 17 18 17 13 11 9 7 8 8 7 7 7 9 10 12 15 15 13 11 10 11 13 12 10 7 6 6 6 5 6 6 7 9 11 15 20 23
32 25 28 30 34 34 30 29 31 31 32 36 35 30 30 28 26 29 31 31 33 38 42 48 51 47 43 45 49 47 39 30 27 26 26 26 26 23 21 21 21 20 24 33 30 22 23 23 21 25 22 18 25 26 16 11 10 9 9 8 7 7 7 9 11 12 13 14 15 13 12 14 15 12 10 8 7 8 7 6 6 7 9 13 16 17 20 24
32 28 32 35 37 32 27 29 32 33 34 37 38 34 32 31 27 29 33 32 33 40 42 45 51 52 53 58 57 53 48 38 34 35 34 33 31 26 23 21 20 22 26 27 22 21 27 27 23 25 21 20 27 25 16 12 11 9 9 8 8 8 7 9 10 11 12 13 14 14 15 16 14 11 10 9 8 9 8 7 7 9 11 12 13 13 12 19
39 39 36 38 40 31 28 32 31 33 35 35 36 34 33 34 30 31 34 30 37 53 52 45 49 53 56 62 63 58 53 49 50 54 54 50 42 33 25 20 19 21 22 19 17 22 30 28 23 22 21 21 23 20 16 15 13 12 10 8 8 9 8 9 9 9 11 13 13 14 17 16 13 10 10 9 9 9 8 8 7 10 10 9 10 10 8 12
51 50 44 43 43 36 34 31 29 33 36 36 38 38 38 38 33 32 32 29 39 55 55 50 52 51 50 59 67 66 62 64 68 66 61 57 49 40 32 26 24 22 20 19 19 23 28 30 25 21 21 23 21 19 17 16 15 15 13 9 8 8 7 8 8 8 10 12 11 13 16 15 11 9 9 9 10 9 8 8 8 8 9 8 9 9 7 8
67 63 60 60 54 44 38 30 30 36 35 35 40 39 38 38 35 33 33 33 39 46 46 47 49 47 47 56 68 69 62 63 68 63 56 55 52 44 40 39 34 27 22 22 22 23 26 29 28 24 25 25 20 18 18 17 17 17 15 12 10 8 8 8 8 8 9 11 11 12 17 16 10 9 10 11 12 11 10 10 9 9 9 9 9 8 8 9
82 78 77 77 66 51 42 33 31 34 33 33 38 38 37 37 34 34 34 34 39 45 46 46 45 44 45 51 62 64 56 52 53 49 45 47 46 41 39 39 35 31 28 25 25 26 25 27 27 27 32 29 21 19 18 16 17 17 17 16 13 10 9 8 8 8 9 11 12 12 16 17 13 11 12 13 13 13 12 12 10 10 10 9 10 10 9 10
87 86 83 84 76 58 44 35 30 31 32 32 36 37 37 36 32 34 40 39 37 41 44 42 41 43 44 47 52 53 50 47 44 41 38 38 38 34 32 31 29 29 29 27 27 27 26 27 25 26 33 30 20 18 17 17 22 23 18 15 14 13 12 10 10 10 9 11 14 15 16 17 16 15 14 14 12 11 11 11 11 11 11 11 11 11 10 10
Wind_Speed
18 18 19 19 19 19 19 19 18 18 18 18 18 18 19 20 20 19 19 20 21 20 20 19 19 19 19 19 19 19 18 19 18 20 24 17 12 14 13 14 12 11 16 16 14 17 19 21 21 19 17 16 16 15 13 13 10 7 5 5 5 3 3 11 4 5 2 9 7 7 6 4 8 8 8 8 10 12 10 10 11 9 9 13 22 29 31 30
19 19 20 20 20 20 20 21 21 21 20 20 20 20 20 21 21 20 19 20 21 21 20 19 18 17 18 18 18 19 19 19 19 25 24 10 9 11 8 11 12 12 13 17 20 22 22 23 23 21 18 16 15 15 14 13 12 9 5 7 2 4 9 11 5 4 3 6 6 8 7 4 7 8 6 6 10 11 10 11 12 12 14 19 27 30 31 31
20 20 20 21 21 21 21 22 22 22 22 22 22 22 22 22 22 21 20 20 20 21 20 19 17 15 16 17 16 17 17 18 21 28 25 15 17 17 13 14 13 12 13 18 22 22 21 22 22 21 18 16 15 15 14 11 11 11 8 8 1 3 14 7 3 2 5 3 4 7 7 6 6 8 5 5 9 9 8 10 12 14 18 23 27 29 31 31
20 21 21 21 21 21 21 22 23 23 23 23 23 23 23 24 23 22 21 20 19 20 20 19 17 14 14 14 14 13 13 16 18 20 19 18 19 18 19 18 16 15 14 18 21 20 19 20 21 21 18 15 16 16 13 12 10 9 9 7 1 6 14 5 4 1 6 4 4 7 7 7 7 8 6 5 7 6 7 10 13 16 20 24 28 29 30 30
21 21 21 21 21 21 21 22 23 24 24 24 24 24 24 24 24 23 22 20 19 19 19 18 16 13 12 12 12 9 7 8 5 8 12 14 12 12 16 16 17 18 17 19 20 20 20 20 21 21 18 13 15 14 13 16 13 8 9 10 4 6 9 3 4 1 3 3 3 4 4 6 9 9 6 5 5 4 6 11 13 18 23 25 29 30 30 30
21 22 21 21 21 21 22 22 23 24 24 24 24 24 24 24 24 23 22 21 19 19 18 17 15 12 11 10 10 6 7 6 3 4 5 8 11 11 9 11 15 19 21 21 21 21 21 21 21 20 17 13 14 13 14 18 15 9 8 10 6 5 9 2 2 1 1 4 2 0 1 4 7 8 8 7 5 6 7 10 14 18 23 25 28 29 29 30
23 23 23 22 22 22 23 23 24 24 24 24 24 24 24 24 24 23 22 20 19 18 17 16 14 12 10 8 9 8 15 18 8 3 7 6 13 8 4 6 15 22 24 24 23 23 23 23 23 21 16 13 14 15 15 18 17 13 8 9 10 11 13 8 4 4 5 6 5 3 2 4 7 7 9 9 7 8 8 10 15 19 22 24 27 28 28 30
24 24 24 24 24 24 24 25 25 25 25 25 24 25 25 24 23 22 21 20 19 18 16 15 12 11 9 7 9 10 20 26 18 12 15 12 12 6 3 3 15 25 26 26 25 24 24 24 24 21 15 13 15 15 16 16 16 16 12 10 11 13 13 10 8 7 9 8 6 5 5 6 6 5 8 10 10 10 9 11 16 20 22 24 25 26 27 27
25 26 26 26 26 26 26 26 26 26 26 25 25 25 25 24 23 21 20 19 18 17 16 14 11 10 10 9 9 12 18 19 14 13 14 14 15 17 13 6 14 26 26 26 26 24 24 24 24 22 16 14 16 15 17 15 11 14 15 15 12 11 12 11 11 11 12 10 8 8 8 8 8 6 5 10 11 11 11 12 18 21 22 24 24 25 26 27
26 26 26 27 27 27 28 27 27 27 26 26 25 25 25 25 23 22 20 18 17 16 15 13 11 11 11 10 10 11 12 9 7 10 13 13 17 21 18 12 14 25 27 25 26 26 25 22 23 23 18 15 16 15 16 15 11 12 15 18 17 14 13 12 13 13 13 12 11 10 9 9 10 8 6 11 13 12 13 14 18 21 22 23 24 25 26 27
26 27 27 27 28 28 29 28 28 28 27 26 25 25 25 25 23 21 19 17 16 15 13 11 10 12 11 11 14 11 7 6 5 7 9 12 18 21 18 17 18 23 27 25 25 26 25 23 21 21 17 14 15 15 17 16 14 13 11 14 17 17 15 14 13 14 14 12 13 14 11 10 9 9 8 12 16 14 15 16 19 20 21 23 23 24 25 26
27 27 27 27 28 29 29 29 29 29 29 27 26 25 25 24 22 21 19 17 16 14 12 10 9 12 9 13 24 20 8 5 4 5 7 10 17 18 15 19 21 23 25 24 25 25 25 23 21 21 16 12 13 12 13 18 19 17 13 10 13 15 15 17 16 16 16 12 14 14 11 11 11 11 10 12 18 16 16 17 19 19 19 22 23 24 25 26
28 28 28 28 28 29 29 29 29 30 30 28 27 25 24 22 21 21 20 18 16 14 11 9 10 10 10 15 22 18 13 12 9 6 7 11 15 15 16 20 21 22 23 22 22 23 24 23 22 23 20 14 13 8 5 13 20 17 15 10 10 12 13 17 18 18 18 14 15 12 7 10 12 15 14 14 17 17 17 17 18 19 19 20 22 23 25 26
28 28 29 29 29 29 30 29 30 30 30 30 27 25 23 21 22 22 20 19 16 14 11 9 9 8 12 18 15 9 13 16 15 12 9 11 15 16 18 20 20 21 21 21 19 20 22 22 21 22 22 18 15 11 5 10 15 13 12 10 10 10 10 16 18 19 17 15 18 14 6 7 10 17 17 15 18 17 17 18 18 19 19 19 21 22 25 27
28 29 30 29 30 29 30 30 30 30 30 29 26 24 23 21 21 20 19 17 14 12 9 7 6 9 11 20 16 12 15 15 17 17 12 13 16 17 20 20 20 20 19 20 18 18 20 21 21 19 21 20 17 14 9 9 10 10 11 10 10 10 10 14 18 19 17 15 19 15 7 6 7 15 19 16 18 18 17 18 18 18 19 20 21 21 23 27
29 30 31 31 30 29 30 30 30 31 29 28 26 24 22 20 19 18 18 16 13 10 5 4 3 8 9 12 10 13 16 17 19 19 15 15 17 17 19 20 20 20 19 19 16 16 19 20 21 19 18 17 15 11 7 9 10 10 11 10 12 13 11 11 13 18 18 15 17 15 9 6 6 11 19 18 17 17 16 18 19 18 20 20 20 19 21 24
30 31 31 32 31 30 31 30 30 30 28 28 27 24 21 18 17 17 15 12 10 7 2 1 2 8 12 7 6 11 16 18 17 19 19 17 16 16 18 20 21 20 19 17 15 15 19 20 17 16 16 14 12 11 9 11 11 10 11 11 13 14 12 11 10 15 18 15 15 16 12 9 7 10 17 18 16 16 15 16 19 18 19 21 20 19 19 22
31 32 32 32 31 31 30 30 30 29 28 29 25 22 18 17 20 17 10 8 6 4 4 6 7 7 11 14 11 7 12 17 16 19 22 19 16 16 19 20 20 20 19 17 16 17 18 19 15 11 13 13 12 13 12 12 12 12 12 11 12 14 14 14 12 13 18 17 15 15 13 12 11 11 15 17 16 15 15 15 17 18 19 22 21 21 21 22
31 32 33 33 32 31 30 31 29 28 29 28 24 21 15 16 20 10 2 4 4 5 5 7 15 8 6 8 14 6 4 13 17 19 23 23 18 16 20 20 19 22 19 14 16 20 17 14 14 12 12 15 15 16 16 15 15 15 15 12 12 13 13 14 13 12 16 17 16 15 14 13 14 13 12 15 16 15 14 15 16 18 19 22 22 23 23 23
30 31 32 32 32 31 30 30 28 27 27 26 27 22 13 15 14 3 4 12 16 18 20 15 19 20 15 7 9 8 5 10 16 19 24 26 21 18 21 21 21 21 17 13 14 20 18 12 13 15 15 18 20 20 19 18 18 16 14 14 15 15 12 12 12 12 13 13 15 17 15 14 15 15 14 16 18 15 14 15 16 18 20 21 23 24 24 22
29 30 30 30 31 30 30 29 25 25 24 22 25 19 12 16 11 8 19 25 23 23 29 30 25 28 27 18 9 7 8 11 16 20 23 27 25 20 21 23 19 15 16 17 15 17 18 13 16 19 19 20 21 21 20 19 20 17 13 12 14 14 13 13 15 14 13 10 12 15 16 16 16 15 16 17 16 15 15 16 16 18 20 22 24 24 23 22
29 29 29 29 29 28 29 26 22 24 24 18 17 16 13 14 11 12 18 22 27 26 27 30 30 30 31 28 18 10 10 13 18 21 24 29 28 22 21 22 17 13 17 18 14 13 15 15 19 21 20 19 19 20 21 20 20 16 11 11 11 11 12 14 17 17 14 8 10 14 15 15 15 15 15 15 15 17 19 18 17 18 17 20 23 21 21 22
29 30 30 29 29 28 26 23 21 24 23 14 12 16 15 15 13 14 15 16 27 30 26 28 31 31 31 29 26 19 15 16 18 23 28 31 31 28 22 20 17 17 18 18 16 13 12 15 19 20 18 20 20 19 21 19 16 14 12 11 11 11 12 11 14 17 15 9 10 15 13 12 13 14 14 15 17 20 22 21 19 19 18 19 21 20 21 25
30 30 30 30 30 28 24 19 19 20 17 10 9 15 17 17 15 16 17 14 18 23 24 28 28 29 31 27 24 25 24 20 18 23 31 33 32 29 22 20 20 17 17 22 23 18 14 13 17 21 19 20 21 19 19 15 12 15 16 13 12 14 15 13 12 15 15 13 13 14 12 10 13 15 14 15 17 19 21 22 20 19 20 20 21 23 25 28
30 29 30 30 29 31 23 12 13 19 15 8 10 17 18 17 16 15 14 11 11 14 15 19 22 24 26 22 20 25 24 22 22 23 29 34 33 26 21 21 19 16 20 25 23 18 17 14 16 21 21 20 20 18 18 16 11 14 19 18 16 16 16 15 14 14 12 12 13 13 11 9 12 16 15 14 16 17 18 20 20 20 19 20 21 25 28 29
30 29 30 29 28 31 24 11 13 19 13 8 14 20 18 16 16 15 9 7 9 9 8 12 15 14 17 20 21 22 18 21 27 25 27 33 34 26 19 18 15 17 21 21 16 11 14 17 15 17 21 22 20 17 19 18 11 11 15 19 21 19 17 16 16 13 9 9 11 14 12 9 11 15 16 16 16 18 18 18 20 20 19 20 21 23 26 28
30 29 30 29 26 27 22 15 17 17 11 13 19 21 18 16 15 13 6 7 7 6 10 8 9 9 13 18 23 20 8 12 26 30 29 31 34 30 20 17 15 16 17 13 12 11 14 21 18 17 20 19 17 15 17 19 13 10 11 16 20 21 20 18 16 13 9 9 11 14 15 11 11 13 16 19 19 19 19 17 17 20 20 20 21 22 24 26
30 30 30 29 25 21 19 18 15 13 12 17 22 20 17 16 15 10 5 6 2 8 9 5 5 5 8 14 24 23 7 7 19 29 33 31 32 31 21 20 18 17 19 15 12 13 17 22 20 19 18 14 15 16 16 18 15 11 11 13 15 18 20 19 15 12 10 10 10 14 16 12 10 10 12 17 19 19 19 17 16 18 20 20 20 22 23 26
30 30 29 28 24 18 18 18 12 11 16 19 21 19 17 16 13 7 6 6 2 5 4 5 7 6 8 12 22 25 15 9 9 21 36 32 31 29 19 21 22 18 22 20 15 14 15 19 21 19 15 13 15 16 17 18 15 12 13 12 10 11 14 16 14 11 11 12 12 15 16 12 9 9 11 14 16 16 16 16 16 18 20 19 19 19 22 25
29 29 28 27 22 16 14 12 9 13 19 21 20 19 18 13 8 7 8 6 3 2 3 7 7 7 12 11 15 21 19 14 5 15 33 30 31 31 21 22 23 15 18 21 19 17 15 18 20 17 14 14 16 16 17 18 16 13 13 10 8 7 8 10 11 10 11 12 15 18 19 15 11 9 11 13 13 14 14 14 16 18 20 20 18 20 23 25
27 26 26 24 19 15 12 10 12 17 20 21 21 20 16 9 6 9 7 3 3 4 3 4 2 4 11 10 10 15 17 15 8 14 23 21 24 25 18 18 18 13 14 16 18 20 19 17 15 15 18 17 15 15 16 18 17 14 12 9 8 8 8 8 9 10 11 12 13 18 20 18 14 10 10 13 16 17 16 15 17 18 20 23 23 24 26 24
24 24 22 19 17 14 12 14 19 21 20 21 22 18 11 7 8 9 7 5 3 5 7 5 7 7 7 9 9 12 15 15 12 14 17 16 17 18 18 15 13 13 14 13 15 17 18 17 14 16 21 21 16 13 13 15 16 14 11 10 9 8 8 9 10 10 12 11 11 15 18 17 15 11 13 14 16 18 17 16 18 20 24 26 26 25 24 23
23 21 18 16 15 11 12 18 21 21 20 21 19 14 8 8 8 9 10 8 4 10 12 12 13 15 12 11 11 12 14 15 15 16 18 18 16 18 22 21 19 16 13 12 14 14 14 17 19 17 16 21 19 12 11 12 14 15 12 11 10 9 9 10 10 10 11 10 12 16 15 14 14 12 16 19 16 16 18 19 23 27 29 28 27 24 23 23
22 19 15 13 12 10 14 19 20 19 19 19 16 11 9 10 9 11 12 6 10 14 14 16 17 16 14 11 12 12 12 14 18 17 16 18 16 15 19 24 25 19 11 11 12 13 14 14 19 19 13 18 22 17 13 13 13 15 13 12 11 9 9 9 9 10 9 9 13 16 13 12 11 9 13 20 19 18 19 21 26 28 27 26 27 24 23 24
19 16 12 9 9 12 16 18 17 17 18 17 12 8 9 9 8 8 7 10 13 14 17 20 18 15 12 11 14 14 9 9 18 18 14 16 15 14 16 20 25 21 14 13 10 12 17 13 16 22 17 18 23 20 17 15 12 13 13 12 12 11 9 7 8 10 9 8 10 12 10 9 8 7 8 13 19 21 19 18 21 24 24 25 27 25 24 25
17 13 9 6 10 16 17 17 16 15 16 14 10 7 8 9 7 4 8 13 14 14 19 18 12 10 10 9 12 14 9 7 13 15 14 16 16 17 17 15 22 25 17 12 9 10 14 12 14 23 23 21 22 22 21 16 10 10 13 13 12 12 11 7 7 8 7 8 8 9 10 8 7 8 8 9 14 19 21 19 17 20 23 24 26 27 26 26
16 13 9 5 14 20 18 15 14 14 15 11 8 9 8 9 10 10 12 15 16 15 15 11 7 9 10 8 9 13 11 7 11 11 11 15 14 15 18 17 19 25 25 17 11 10 11 10 14 23 24 22 23 24 23 21 14 9 12 14 11 11 11 8 7 6 7 8 7 9 12 11 8 7 9 13 14 16 20 22 19 19 22 23 25 29 30 28
18 15 8 5 17 21 16 14 13 14 13 7 8 11 9 9 12 14 15 16 16 14 12 9 9 11 11 10 8 4 4 4 8 8 9 13 8 2 7 11 6 9 21 21 11 9 11 9 13 21 23 20 20 21 19 21 21 14 10 13 12 10 11 9 7 8 9 8 7 9 11 10 9 8 8 14 17 16 17 20 20 21 21 22 25 29 32 29
18 16 5 10 19 19 15 14 12 11 9 6 7 8 8 11 14 17 19 18 15 12 11 11 11 12 13 13 12 9 5 5 5 6 9 10 5 6 7 1 1 5 5 10 8 10 11 9 9 17 22 19 15 15 14 16 20 17 12 12 12 9 9 10 8 7 8 7 7 9 10 8 9 10 10 11 14 16 15 15 17 18 20 22 25 26 28 28
16 11 6 16 21 18 16 15 9 7 5 4 6 7 9 12 14 18 19 16 13 10 10 13 13 13 14 15 15 12 8 9 11 10 8 3 5 6 10 8 5 4 5 6 9 11 9 8 9 12 19 18 13 14 16 16 17 16 13 12 12 10 8 9 9 8 7 7 6 7 8 7 6 8 9 9 12 14 14 14 13 14 18 23 23 23 26 26
15 8 8 19 21 19 18 12 4 5 4 3 5 8 10 10 12 15 15 13 12 11 11 14 15 15 14 13 13 12 10 11 11 10 9 0 7 6 8 11 9 7 6 6 10 11 7 6 10 10 14 15 14 17 20 21 19 16 13 12 13 12 10 10 10 10 9 8 6 5 6 2 4 3 4 7 10 12 13 14 13 13 18 20 22 23 25 27
13 8 10 17 19 20 17 7 4 6 4 4 7 8 10 10 11 13 14 13 11 10 10 12 14 15 14 13 13 12 12 11 10 10 11 3 6 7 9 12 12 10 7 7 13 13 6 4 9 10 12 14 17 19 20 22 22 19 16 14 13 12 12 10 9 9 9 9 8 7 6 2 7 5 4 3 5 9 12 12 12 14 17 18 19 21 23 26
13 10 10 13 17 19 14 4 4 6 4 7 10 10 9 10 10 11 13 12 10 8 8 9 11 12 12 13 15 15 13 11 12 14 13 6 5 7 9 13 14 10 5 6 11 11 4 4 9 9 10 13 16 19 19 21 21 18 16 16 14 14 14 11 8 7 8 10 9 6 6 4 8 7 7 6 0 6 11 11 11 13 15 15 17 19 21 25
16 13 9 12 16 15 10 5 5 6 6 9 11 10 9 8 9 10 12 12 9 8 9 9 10 11 12 14 15 16 15 11 12 13 12 7 4 8 8 11 13 9 3 4 3 2 4 9 10 8 9 12 13 15 16 18 18 13 15 18 18 19 18 14 10 7 7 10 11 9 7 4 8 7 4 3 6 7 10 13 12 12 13 14 15 14 14 16
16 10 9 14 15 11 7 6 7 7 7 9 11 10 9 7 7 9 12 11 8 9 10 9 10 12 13 14 14 15 16 13 11 10 10 8 4 4 5 8 10 9 8 12 12 7 4 10 11 10 12 12 11 11 11 14 15 11 15 22 23 23 22 15 10 8 7 9 10 9 6 5 9 8 7 7 7 6 7 11 12 11 11 10 9 10 11 10
15 8 9 15 13 8 7 9 9 8 8 9 9 9 9 9 8 8 9 8 6 8 10 7 10 13 11 12 14 13 15 16 14 11 9 9 8 3 3 6 7 8 13 17 13 8 5 8 12 15 15 8 2 3 4 9 15 16 20 24 24 25 23 16 11 10 8 7 8 9 6 8 12 10 8 8 9 7 5 7 12 13 11 11 12 10 8 7
13 8 8 11 9 7 8 10 11 9 9 9 7 7 10 10 8 6 6 6 6 8 7 4 6 10 11 11 13 12 14 16 14 12 10 9 11 9 5 6 4 7 13 15 7 4 6 8 13 19 19 11 4 8 10 6 14 18 21 23 23 24 25 20 14 12 10 8 8 10 8 6 11 11 8 8 9 7 5 6 11 13 12 10 10 7 6 9
10 9 11 10 7 8 9 10 13 12 12 11 7 7 10 10 10 8 6 8 7 5 4 4 5 8 11 10 10 10 13 13 9 12 14 12 12 12 7 6 1 6 10 8 3 4 6 9 13 18 19 14 7 7 10 8 9 11 17 24 25 25 26 25 20 16 14 10 8 11 13 10 7 11 11 10 9 7 5 5 7 9 10 10 9 5 4 9
11 11 12 11 10 12 13 14 15 13 11 10 7 6 7 9 10 9 7 9 6 3 2 7 7 8 10 9 8 8 10 10 8 10 13 12 14 14 6 2 2 7 9 5 3 4 4 6 9 14 17 15 11 8 9 8 6 7 12 18 23 25 25 24 22 20 17 13 9 10 15 14 9 9 12 11 6 4 4 3 0 2 4 3 4 1 2 5
12 12 12 12 13 14 15 15 13 10 8 8 6 3 5 9 10 9 8 11 9 4 5 8 9 9 9 8 8 9 9 10 9 10 11 12 13 11 7 6 8 11 11 6 3 4 3 2 3 6 11 13 12 10 8 8 7 7 8 10 15 22 25 23 22 20 17 16 13 11 11 12 10 8 6 5 4 2 2 2 2 2 3 4 3 4 4 2
13 14 14 12 11 12 13 12 10 8 6 6 6 5 7 10 11 10 9 10 9 7 7 10 10 9 9 8 8 9 10 11 11 12 13 13 14 12 8 8 10 11 9 7 5 5 5 3 2 5 8 10 12 12 9 9 8 9 10 9 11 14 16 17 17 16 15 15 15 13 9 7 6 4 2 1 0 2 4 5 6 7 7 6 6 7 6 4
17 17 15 11 9 11 12 10 9 8 6 5 6 8 10 11 12 12 9 6 7 8 9 11 11 9 8 9 8 8 10 13 15 16 17 17 19 19 16 13 14 11 8 8 7 5 4 4 4 7 7 9 15 14 11 9 9 10 11 12 10 9 10 12 10 10 11 10 9 9 7 5 5 5 5 5 5 7 7 7 8 9 8 7 7 8 7 6
Wind_Direction
351 348 346 343 342 339 336 332 328 325 321 318 314 311 308 305 304 304 306 306 304 303 300 298 297 297 294 293 292 292 293 287 287 282 273 272 267 257 243 232 230 225 222 214 194 185 185 191 195 192 199 205 216 229 221 221 231 240 255 252 261 63 264 276 37 66 92 106 115 128 139 129 125 117 109 131 122 121 134 125 125 110 96 119 133 142 147 152
349 347 346 343 342 339 336 333 329 326 322 321 317 313 309 305 304 303 305 304 304 304 301 300 296 298 297 295 295 294 294 292 293 278 262 248 243 242 221 219 221 219 213 198 190 187 185 190 190 190 199 207 212 221 218 211 220 230 249 256 234 98 244 263 41 51 56 95 120 137 153 148 135 130 137 157 128 129 140 132 132 118 110 122 134 143 147 153
349 347 346 344 343 340 337 333 329 326 323 322 319 316 312 307 306 304 305 303 303 303 302 301 298 299 296 296 299 295 300 304 294 276 261 247 245 242 232 230 225 217 206 193 192 191 190 189 187 190 201 212 212 212 213 202 212 229 240 261 112 168 239 244 57 58 56 54 120 131 150 150 144 140 155 163 135 140 145 141 145 133 129 135 141 146 149 155
351 350 348 346 344 341 337 333 329 326 324 323 321 318 313 309 307 306 305 302 302 300 301 301 299 300 295 296 296 297 315 309 285 265 259 254 246 238 235 233 223 213 199 194 195 195 195 192 189 194 204 215 214 211 215 202 209 226 230 259 16 241 245 172 132 87 69 12 46 101 146 158 156 148 161 166 147 152 154 151 152 145 144 147 149 151 153 157
353 352 350 348 346 342 338 334 330 327 326 325 322 317 313 310 308 307 306 303 301 298 299 299 300 301 293 291 291 298 313 304 276 224 237 247 232 215 220 220 214 205 191 193 197 198 197 195 193 199 210 220 213 210 218 209 214 232 234 263 295 284 284 123 135 66 74 330 32 122 160 151 154 157 164 172 164 139 146 155 152 151 152 157 156 155 158 160
353 352 350 348 345 341 338 334 331 328 328 327 324 318 314 311 308 309 308 305 300 295 296 295 298 298 287 282 280 269 242 262 61 122 230 218 176 154 172 193 198 191 189 193 195 198 198 197 196 201 213 223 218 211 217 209 213 234 224 242 251 249 275 286 154 208 232 295 314 223 27 135 158 168 171 180 169 101 115 148 150 152 155 160 158 158 162 164
354 353 351 348 345 342 338 334 332 329 329 328 324 320 317 314 311 311 309 306 299 294 294 293 296 290 280 271 265 243 233 249 251 240 289 212 165 138 112 171 181 178 188 195 194 196 197 199 199 204 212 219 223 216 216 212 211 235 233 219 219 218 238 247 239 237 241 266 281 297 307 193 182 178 171 183 181 128 121 140 144 150 155 161 161 163 167 167
357 355 353 351 347 344 341 337 334 330 329 327 324 321 320 318 315 313 311 306 299 295 293 292 291 282 270 250 248 243 238 247 248 252 276 245 203 233 283 191 175 176 191 198 195 197 197 202 202 205 215 217 225 218 216 219 213 226 241 236 224 221 232 240 236 236 239 249 260 251 244 222 205 201 176 177 183 157 143 144 144 149 156 165 166 167 169 169
358 357 355 353 350 347 344 341 337 332 330 328 324 321 321 321 320 316 312 307 301 296 295 292 286 271 261 238 233 250 248 249 248 242 255 247 238 251 256 237 181 178 195 202 197 200 199 204 205 208 222 222 228 226 216 223 221 219 234 246 244 234 232 234 232 230 235 240 245 236 233 228 208 213 202 177 180 166 156 155 151 154 161 167 169 171 170 170
357 356 355 353 351 349 346 343 340 335 331 328 325 323 321 322 321 317 313 310 303 298 296 292 280 265 252 233 227 249 252 239 233 224 230 233 236 248 247 235 200 186 198 203 201 205 202 207 208 211 228 231 231 232 221 223 225 222 233 241 243 246 238 231 231 229 233 234 237 238 232 228 204 202 209 177 176 170 162 163 158 160 165 167 170 172 173 172
356 355 354 352 350 348 346 343 341 339 335 331 328 324 322 321 321 319 316 313 306 302 299 290 276 261 243 225 225 234 240 223 213 216 224 210 213 240 241 218 208 196 199 204 205 207 207 210 209 212 225 234 238 236 229 227 225 226 236 240 238 243 243 238 236 231 233 231 228 235 237 232 207 206 214 175 173 174 167 165 165 168 167 168 171 172 175 176
354 353 352 352 350 347 344 342 341 340 338 335 330 326 324 322 322 319 317 314 309 305 298 290 275 253 227 225 234 233 228 227 236 229 228 203 202 228 225 203 204 200 199 206 208 209 209 211 211 214 219 224 237 238 232 227 226 233 238 244 242 241 240 233 230 227 228 229 222 226 235 230 211 211 211 173 169 172 172 169 169 173 170 170 171 172 176 178
352 351 351 351 350 347 343 342 341 339 338 336 333 328 324 323 323 319 317 315 311 308 301 293 276 242 213 234 248 247 236 232 251 252 225 208 203 210 204 199 203 202 204 209 210 209 210 212 213 218 221 221 227 229 252 230 221 230 235 241 246 241 237 226 222 221 221 223 218 217 229 226 207 200 195 171 166 172 176 176 176 175 174 174 172 174 178 178
350 349 349 349 349 346 343 342 341 339 337 336 334 329 325 325 323 318 316 313 311 309 305 293 268 217 213 245 259 262 238 231 239 241 221 206 200 197 195 197 202 204 209 213 213 210 209 212 216 222 224 228 236 227 235 232 217 221 228 229 237 241 237 220 212 213 215 213 210 214 226 228 203 182 183 176 169 178 182 179 184 178 175 178 176 180 182 180
349 348 348 349 349 347 343 342 341 339 337 337 337 333 328 326 321 317 316 315 316 313 310 299 247 193 235 266 265 253 240 227 224 223 213 202 195 192 193 194 199 201 206 211 211 208 207 210 214 222 221 223 241 238 223 226 215 214 223 223 225 234 244 225 207 205 211 203 200 212 217 227 218 169 173 184 176 184 190 184 187 182 177 181 180 185 187 182
350 348 348 349 350 348 344 343 342 340 339 339 339 336 332 329 325 320 316 313 311 310 313 317 243 207 256 282 259 241 231 220 218 211 202 199 195 194 193 191 192 194 199 205 207 205 204 209 214 221 221 216 229 238 226 223 214 209 219 227 220 217 234 232 201 197 210 203 192 208 219 215 224 170 169 181 182 188 195 189 188 185 182 179 177 187 193 186
350 348 348 349 350 350 345 344 345 341 340 341 342 341 337 335 335 327 317 311 305 302 279 252 241 233 249 249 230 235 220 213 212 202 198 196 195 193 186 185 186 188 192 196 204 204 199 206 211 215 221 218 214 218 222 219 211 205 210 226 228 220 222 220 192 188 207 213 196 201 219 217 205 182 174 177 185 194 197 195 189 187 182 170 173 187 197 195
350 349 349 349 351 351 346 346 346 342 343 344 345 346 341 341 342 334 322 324 332 312 252 217 203 231 244 225 226 245 215 206 198 193 194 191 192 190 181 182 180 179 184 188 199 201 195 200 209 210 215 217 210 208 217 217 210 208 206 215 229 226 220 212 199 187 198 212 207 196 208 216 203 191 183 180 190 198 198 200 192 189 178 163 173 189 196 203
351 349 349 348 350 351 348 348 346 344 346 345 349 353 349 344 337 332 332 302 264 237 262 200 190 225 312 228 217 230 194 191 187 187 190 188 188 185 182 184 180 178 184 186 191 196 192 194 208 213 210 210 211 209 216 224 222 217 212 213 221 227 227 217 206 191 193 207 212 207 210 210 207 204 192 185 196 204 202 201 194 190 180 166 177 192 194 201
351 349 350 348 349 352 349 348 348 347 351 357 2 1 0 352 333 317 349 296 257 251 274 262 224 244 286 281 217 206 179 176 185 191 190 187 185 183 185 187 185 186 193 193 185 192 195 200 209 212 211 208 210 215 219 228 235 231 223 220 219 224 228 219 210 195 190 208 214 214 219 214 209 212 209 200 200 205 205 202 196 193 184 174 186 196 193 195
350 349 350 348 348 351 350 349 352 351 360 15 13 11 16 3 341 322 329 307 277 261 264 265 253 249 257 257 236 203 206 202 197 198 192 185 185 188 186 187 191 194 200 200 190 190 200 215 216 211 214 212 210 215 220 225 233 237 235 233 225 222 224 213 208 199 187 204 219 216 222 221 213 212 211 203 198 207 210 204 200 197 187 181 191 198 190 189
350 348 348 349 347 351 351 349 354 357 6 21 15 14 14 356 337 318 319 301 288 278 261 258 255 248 248 246 239 228 229 218 201 198 190 182 186 191 186 188 198 196 196 201 195 192 205 222 220 211 212 216 214 213 218 224 229 233 232 236 234 221 223 217 208 207 196 196 226 225 225 227 221 218 213 199 194 207 212 208 203 198 197 191 188 192 187 188
349 347 347 348 347 351 351 346 358 6 5 9 7 8 359 340 331 318 304 288 288 285 261 247 243 239 239 237 230 224 226 221 203 195 188 183 189 195 190 191 202 199 195 202 203 197 208 219 217 214 209 212 217 213 214 220 225 231 225 225 233 220 221 221 208 211 205 196 231 235 230 231 227 222 219 213 209 208 206 210 210 199 204 202 184 184 190 191
349 346 345 347 347 350 352 349 1 9 356 341 350 355 347 333 331 325 307 281 277 282 263 241 231 230 230 226 219 215 219 223 212 195 186 186 191 195 199 198 201 206 200 203 210 211 216 213 206 212 210 207 215 213 210 215 218 226 227 224 230 224 223 228 217 214 207 201 222 236 237 232 229 227 222 220 222 216 202 204 213 207 207 204 184 183 194 197
348 345 344 347 346 346 356 5 1 0 352 340 341 340 339 334 330 329 313 280 261 269 260 230 218 225 224 215 207 206 214 221 218 202 188 190 192 191 202 204 201 212 207 205 213 219 223 216 198 205 210 207 213 213 208 214 217 220 225 226 232 234 232 236 234 226 217 209 210 222 239 234 225 229 227 218 218 217 202 196 208 212 209 204 191 186 192 197
348 346 344 347 346 345 355 9 347 351 353 342 339 336 334 332 328 327 309 279 269 239 198 182 191 204 204 199 193 193 210 221 215 208 193 193 197 193 198 203 204 215 211 207 214 224 225 220 205 202 207 206 211 217 209 211 223 222 216 218 227 238 240 239 238 232 226 229 215 212 229 239 229 228 226 224 221 217 208 198 204 209 207 206 202 194 188 191
348 345 343 348 349 345 350 353 344 349 346 329 335 334 329 327 325 328 296 264 271 183 145 153 175 175 184 187 178 178 210 207 201 209 201 192 197 200 204 203 202 214 212 207 215 218 217 218 210 200 207 208 208 217 208 204 220 229 212 211 217 228 235 236 238 235 230 242 238 224 226 236 238 230 225 224 224 222 213 200 203 207 204 206 207 200 190 190
347 344 343 346 348 345 347 351 347 341 333 327 329 327 324 324 320 316 278 270 274 133 130 132 141 153 172 176 182 193 222 163 184 204 200 194 196 200 211 211 205 210 209 211 217 210 210 216 212 200 204 212 210 211 204 201 217 228 219 217 215 218 226 229 235 239 236 240 242 234 232 236 237 232 230 228 226 224 212 197 203 208 201 204 211 204 194 191
345 342 341 343 349 352 349 352 345 322 325 326 324 324 322 314 306 286 249 266 256 122 122 138 137 166 175 171 193 209 222 203 200 194 189 193 199 200 215 217 212 214 213 220 227 216 209 212 216 209 204 214 214 206 201 204 214 223 222 220 216 218 222 224 228 234 235 239 239 231 231 239 243 230 227 232 228 219 208 198 204 207 198 198 208 211 201 191
344 340 340 342 350 354 345 342 327 314 323 324 323 326 316 298 278 246 231 245 255 63 97 150 148 172 183 182 199 213 220 220 218 179 183 189 197 205 218 218 220 224 216 222 229 230 222 207 213 220 210 213 217 205 202 209 209 212 219 212 204 217 222 222 225 228 234 237 235 231 230 237 244 231 220 226 224 212 205 206 204 201 199 193 196 214 211 194
343 339 340 342 346 354 346 327 321 322 325 327 326 320 302 273 245 241 233 254 300 10 67 151 120 170 196 209 208 204 214 219 197 174 185 187 190 202 212 211 219 226 218 220 221 228 230 211 205 217 211 207 216 210 201 206 205 206 212 200 195 207 210 219 216 217 233 235 228 227 229 237 241 231 224 225 222 215 208 204 201 197 200 195 191 209 213 197
345 340 338 341 349 357 342 322 326 327 326 326 321 311 289 252 232 233 247 280 297 10 9 348 349 333 273 269 254 214 207 213 204 188 191 191 188 198 204 201 199 205 213 214 208 214 224 221 208 204 205 203 212 212 196 197 201 202 205 198 198 198 191 207 207 207 228 234 228 223 220 232 242 234 233 234 224 220 214 202 198 201 205 196 188 203 214 202
347 340 340 353 359 348 323 323 327 323 323 323 311 294 272 255 242 239 255 269 343 9 345 328 330 319 294 278 266 235 209 205 205 200 197 196 196 199 206 208 202 203 212 206 204 206 211 220 214 202 197 200 208 211 192 190 195 197 201 196 197 197 191 202 206 211 226 226 224 223 216 227 241 232 226 232 232 226 217 201 199 209 210 194 183 197 214 209
348 345 350 3 2 337 322 326 325 319 320 316 302 279 254 252 257 262 264 301 5 354 333 328 323 306 283 264 254 236 216 206 202 202 199 197 203 204 204 210 209 210 217 207 205 208 206 212 210 204 194 192 203 216 204 190 191 198 202 202 204 208 204 203 206 212 223 222 214 215 219 228 235 232 221 223 225 226 226 209 200 210 210 186 175 190 210 212
350 351 349 349 348 336 331 328 322 322 319 307 292 271 255 254 255 265 296 354 355 340 332 324 307 289 277 260 249 241 237 218 201 200 205 203 207 207 201 206 209 210 215 212 204 207 214 218 205 203 202 192 198 211 210 199 193 194 199 208 211 212 218 222 220 220 223 230 213 204 218 231 230 240 234 222 217 214 224 219 200 204 205 184 172 181 205 214
351 351 340 335 345 340 336 331 327 322 314 303 286 265 259 260 271 326 3 355 340 334 332 319 292 278 269 249 238 228 227 236 211 201 207 210 212 213 207 203 206 209 213 214 208 205 215 222 204 197 200 200 198 201 208 210 197 184 198 211 209 209 226 237 227 227 231 237 225 202 210 219 222 225 212 217 221 208 209 218 207 198 201 191 176 177 198 212
3 346 321 326 345 342 337 332 332 320 310 304 284 280 278 276 305 349 359 346 338 332 325 313 301 304 290 267 236 204 193 224 225 211 207 207 207 216 217 206 201 210 216 219 227 222 219 223 207 196 195 197 195 197 207 214 209 193 196 204 203 209 225 239 232 221 220 229 229 216 212 207 210 217 198 201 217 212 203 208 209 198 198 198 186 181 193 204
358 326 303 343 342 340 337 332 332 321 310 306 286 288 301 312 331 348 345 339 337 327 314 299 299 310 303 297 292 241 194 215 217 218 215 203 193 235 235 210 181 209 220 223 236 234 228 230 207 195 193 189 188 196 207 211 214 219 206 193 197 208 209 213 228 222 216 222 222 224 225 213 206 212 207 199 203 213 206 201 207 205 201 203 197 190 191 195
345 317 333 13 344 338 337 327 325 320 311 314 305 301 321 335 341 344 341 338 331 319 307 295 297 301 293 298 310 306 285 270 267 257 230 206 188 35 20 300 53 33 244 234 238 228 225 235 213 187 182 179 180 197 205 200 206 220 220 199 200 216 208 200 215 226 224 225 218 220 223 224 220 215 214 197 189 205 207 196 206 209 199 199 201 194 185 187
332 314 21 12 347 340 335 318 307 319 322 325 323 319 329 334 334 336 340 341 330 318 304 298 301 297 292 304 310 302 284 280 293 285 252 191 90 61 35 7 323 344 324 263 236 230 223 230 227 177 169 181 189 199 206 196 192 205 213 203 196 205 209 206 211 218 227 232 226 223 222 218 212 204 207 195 179 193 203 197 204 213 201 193 195 193 181 181
318 308 358 358 348 340 333 319 311 335 329 337 333 326 331 331 324 324 333 339 324 307 302 299 296 290 289 298 300 302 300 278 275 275 259 280 59 47 23 2 331 310 296 253 222 225 228 230 231 189 172 196 202 197 205 204 195 196 205 205 196 195 201 206 209 207 219 236 234 239 241 191 108 122 196 202 185 184 195 198 195 206 211 196 189 194 186 180
324 327 338 347 347 339 331 326 356 344 331 351 337 326 333 327 318 323 333 339 328 312 308 297 291 293 293 294 295 295 292 279 274 273 264 280 49 33 7 350 326 305 281 240 215 216 236 275 245 213 190 207 207 197 203 210 203 198 205 209 201 197 201 206 206 198 204 223 230 242 247 128 90 101 141 158 192 184 186 199 192 190 206 202 188 192 189 181
337 329 330 347 346 336 327 325 356 341 338 349 331 321 329 324 323 333 334 337 337 329 323 306 299 306 307 311 312 299 287 282 277 266 265 291 48 47 2 343 330 314 277 236 214 201 208 267 251 233 201 201 205 197 198 209 208 201 204 211 209 205 205 207 210 198 197 210 209 217 232 166 109 110 105 81 209 188 169 185 201 190 192 195 190 190 189 183
329 314 323 352 347 336 330 337 348 338 338 339 327 323 328 323 330 338 334 341 350 338 326 317 318 320 312 310 309 299 295 287 273 272 279 295 30 46 2 338 336 330 340 345 299 221 215 222 224 232 213 196 196 194 192 203 211 207 201 205 211 211 206 206 212 208 204 206 198 201 220 178 119 124 147 174 197 179 155 167 185 185 178 184 187 178 164 161
326 319 335 347 345 341 343 344 334 327 335 332 324 325 324 319 335 341 333 334 343 340 329 323 328 323 310 307 304 295 289 276 271 296 313 303 309 40 15 327 330 345 1 345 327 313 262 219 211 220 215 197 191 197 193 195 203 210 204 202 207 211 208 203 207 212 208 200 200 208 203 136 124 150 175 172 155 135 140 153 153 154 155 152 143 124 114 130
324 328 342 342 341 337 338 341 330 324 335 332 325 326 321 317 326 337 334 327 332 340 332 330 336 327 318 320 317 303 289 280 274 276 287 294 297 353 23 314 321 352 340 325 311 298 270 228 222 227 226 218 210 276 269 210 201 205 206 202 201 208 210 206 207 212 204 193 203 218 202 140 135 147 150 144 140 131 133 136 130 133 130 99 86 93 112 148
327 331 343 341 334 324 329 338 333 327 326 322 322 321 317 316 319 330 339 323 331 344 327 322 348 335 335 335 321 309 302 297 294 293 301 314 315 320 304 277 312 353 325 313 301 283 268 234 225 230 236 247 302 334 328 267 212 209 209 204 200 205 209 209 212 207 196 197 202 205 215 180 145 152 164 153 140 129 128 136 123 121 126 112 100 110 141 158
332 328 332 333 321 317 324 326 322 316 310 309 312 309 307 313 318 324 332 317 331 13 342 313 346 338 333 331 315 306 307 306 321 346 352 349 328 313 273 218 190 358 324 309 302 297 271 234 225 226 232 242 254 297 309 278 237 234 223 209 202 204 207 209 213 208 198 211 208 185 202 217 167 152 165 155 140 143 155 150 104 108 138 138 117 118 158 157
327 319 322 324 313 307 307 307 308 307 305 304 299 292 298 307 312 321 329 316 316 50 353 309 326 334 326 318 305 301 309 315 331 350 349 336 318 312 294 193 53 358 336 321 321 322 279 234 236 229 228 236 237 247 276 277 266 265 244 220 207 205 206 207 211 209 203 213 217 184 190 210 204 168 160 148 146 185 207 224 18 113 166 128 86 88 249 169
321 321 319 314 306 302 301 303 303 302 302 294 282 296 312 304 309 323 325 314 313 336 335 314 316 326 320 307 296 292 300 311 316 320 322 317 313 316 331 3 3 347 334 326 342 332 276 239 314 264 239 238 229 223 247 266 263 259 261 250 223 209 205 204 207 208 205 207 209 195 185 199 210 203 175 110 62 1 313 277 285 310 313 331 325 278 285 283
306 307 309 303 301 303 303 303 300 293 295 290 289 321 324 305 310 320 311 310 314 311 308 309 311 314 303 285 280 286 293 297 297 298 298 295 297 301 309 325 326 325 327 327 338 323 285 289 313 253 241 236 224 215 224 241 256 264 255 243 231 219 208 203 203 206 207 205 205 203 197 189 186 201 231 15 38 262 274 281 286 290 289 287 284 283 288 284
307 301 301 298 292 295 299 302 298 294 299 301 293 299 303 301 307 310 305 305 299 283 281 292 299 301 294 287 287 291 291 289 288 289 286 281 282 283 283 287 291 294 307 314 315 311 302 310 261 220 225 232 220 214 220 229 242 250 234 218 219 225 217 208 206 212 214 210 207 204 199 188 185 210 238 242 244 252 258 269 277 279 283 290 290 285 280 275